�N����,����,�~����,�C��,���x,�C��,����,���ϕ���,�ő�u�ԕ���,�ő厞����,���˗�,�I�_���x,�n�����x,�ő啗���N��,DTYPE
"19/09/07","00:10",0.0,25.6,81.7,1008.6,303.1,0.6,1.3,317.0,0.00,22.3,26.3,"00:00:02",1
"19/09/07","00:20",0.0,25.7,82.5,1008.6,235.8,0.6,1.7,43.3,0.00,22.5,26.2,"00:12:56",1
"19/09/07","00:30",0.0,25.5,82.2,1008.3,267.0,0.3,0.8,325.2,0.00,22.3,26.1,"00:24:32",1
"19/09/07","00:40",0.0,25.6,83.1,1008.1,40.0,0.5,2.0,123.1,0.00,22.6,26.2,"00:34:56",1
"19/09/07","00:50",0.0,25.7,82.6,1007.8,64.6,0.5,1.3,74.5,0.00,22.6,26.1,"00:44:40",1
"19/09/07","01:00",0.0,25.8,82.5,1007.8,21.1,0.5,1.6,42.1,0.00,22.6,26.1,"00:58:40",1
"19/09/07","01:10",0.0,25.8,82.0,1008.1,359.3,0.5,1.6,58.4,0.00,22.5,26.1,"01:00:02",1
"19/09/07","01:20",0.0,25.9,81.9,1008.1,70.4,0.5,1.8,129.1,0.00,22.6,26.1,"01:16:08",1
"19/09/07","01:30",0.0,25.8,82.1,1008.1,108.0,0.5,2.1,74.7,0.00,22.6,25.9,"01:29:52",1
"19/09/07","01:40",0.0,25.8,82.1,1007.8,141.0,0.7,2.8,100.5,0.00,22.6,26.1,"01:33:04",1
"19/09/07","01:50",0.0,25.8,82.4,1007.8,104.6,0.5,2.1,123.7,0.00,22.6,25.9,"01:45:20",1
"19/09/07","02:00",0.0,25.8,82.6,1007.6,66.3,0.5,1.4,113.9,0.00,22.7,25.9,"01:56:48",1
"19/09/07","02:10",0.0,26.0,82.8,1007.4,88.7,1.0,2.2,137.6,0.00,22.9,25.9,"02:04:48",1
"19/09/07","02:20",0.0,25.9,82.9,1007.6,95.3,0.7,1.8,83.9,0.00,22.8,25.8,"02:13:44",1
"19/09/07","02:30",0.0,25.9,82.9,1007.6,86.7,0.6,2.5,102.6,0.00,22.8,26.0,"02:21:12",1
"19/09/07","02:40",0.0,25.8,83.1,1007.6,171.7,0.6,1.8,108.7,0.00,22.8,25.7,"02:32:24",1
"19/09/07","02:50",0.0,25.5,83.2,1007.8,199.0,0.5,1.3,121.6,0.00,22.5,25.7,"02:41:12",1
"19/09/07","03:00",0.0,25.5,84.0,1007.6,186.3,0.6,1.4,126.6,0.00,22.6,25.8,"02:57:36",1
"19/09/07","03:10",0.0,25.6,83.7,1007.6,133.8,0.6,2.4,88.7,0.00,22.7,25.5,"03:02:48",1
"19/09/07","03:20",0.0,25.7,83.4,1007.6,125.5,0.7,2.0,143.2,0.00,22.7,25.7,"03:16:00",1
"19/09/07","03:30",0.0,25.6,83.2,1007.6,134.1,0.8,2.1,108.4,0.00,22.6,25.5,"03:28:32",1
"19/09/07","03:40",0.0,25.6,82.9,1007.8,151.9,0.8,2.0,121.3,0.00,22.5,25.6,"03:33:12",1
"19/09/07","03:50",0.0,25.6,82.3,1007.8,128.3,1.0,2.1,166.7,0.00,22.4,25.6,"03:40:56",1
"19/09/07","04:00",0.0,25.5,82.2,1007.8,135.2,0.6,2.0,121.7,0.00,22.3,25.7,"03:50:16",1
"19/09/07","04:10",0.0,25.4,82.2,1007.8,111.3,0.6,1.3,106.6,0.00,22.2,25.7,"04:02:48",1
"19/09/07","04:20",0.0,25.3,82.2,1008.1,311.8,0.3,1.2,25.8,0.00,22.1,25.5,"04:11:52",1
"19/09/07","04:30",0.0,24.9,83.2,1007.8,265.2,0.3,1.0,238.4,0.00,21.9,25.7,"04:21:20",1
"19/09/07","04:40",0.0,24.9,83.8,1007.8,199.1,0.3,1.3,138.1,0.00,22.0,25.5,"04:39:12",1
"19/09/07","04:50",0.0,24.9,83.9,1008.1,188.7,0.3,1.4,169.3,0.00,22.0,25.6,"04:42:00",1
"19/09/07","05:00",0.0,24.9,84.0,1008.1,156.9,0.3,1.3,201.5,0.00,22.0,25.4,"04:55:04",1
"19/09/07","05:10",0.0,24.8,83.9,1008.3,196.5,0.2,1.2,190.0,0.00,21.9,25.4,"05:00:48",1
"19/09/07","05:20",0.0,24.7,84.4,1008.3,286.8,0.5,1.3,111.0,0.00,21.9,25.2,"05:16:56",1
"19/09/07","05:30",0.0,24.5,84.7,1008.6,271.2,0.5,0.9,328.7,0.00,21.8,25.3,"05:20:24",1
"19/09/07","05:40",0.0,24.6,84.9,1008.1,259.9,0.3,0.9,248.9,0.00,21.9,25.2,"05:36:24",1
"19/09/07","05:50",0.0,24.7,84.7,1008.1,191.9,0.3,1.2,94.5,0.00,22.0,25.1,"05:42:40",1
"19/09/07","06:00",0.0,24.8,84.6,1008.6,132.6,0.5,1.9,112.5,0.00,22.1,25.2,"05:51:44",1
"19/09/07","06:10",0.0,24.9,84.0,1008.6,205.9,0.3,1.1,173.9,0.00,22.0,25.3,"06:08:56",1
"19/09/07","06:20",0.0,25.0,83.9,1008.3,120.2,0.6,1.9,117.3,0.00,22.1,25.2,"06:15:36",1
"19/09/07","06:30",0.0,25.2,83.1,1008.8,130.2,0.5,1.6,132.1,0.00,22.2,25.1,"06:20:56",1
"19/09/07","06:40",0.0,25.4,82.9,1008.6,88.3,0.5,1.2,90.4,0.00,22.3,25.2,"06:31:44",1
"19/09/07","06:50",0.0,25.8,81.9,1008.8,110.7,0.5,1.7,116.3,0.00,22.5,25.0,"06:41:36",1
"19/09/07","07:00",0.0,26.1,81.0,1008.8,259.7,0.2,0.9,71.9,0.01,22.6,25.1,"06:50:24",1
"19/09/07","07:10",0.0,26.5,79.4,1008.6,129.0,0.6,2.0,112.1,0.02,22.7,25.1,"07:08:08",1
"19/09/07","07:20",0.0,26.6,79.2,1008.6,126.9,0.8,2.1,95.2,0.03,22.7,25.2,"07:11:28",1
"19/09/07","07:30",0.0,27.0,78.1,1008.3,114.6,1.1,2.7,145.1,0.05,22.9,25.4,"07:28:40",1
"19/09/07","07:40",0.0,27.4,76.9,1008.3,104.7,1.5,3.5,109.6,0.07,23.0,25.2,"07:37:12",1
"19/09/07","07:50",0.0,27.6,76.4,1008.3,113.9,1.3,2.6,116.4,0.09,23.1,25.4,"07:48:00",1
"19/09/07","08:00",0.0,27.7,74.8,1008.1,118.9,1.5,3.4,112.8,0.06,22.9,25.4,"07:58:16",1
"19/09/07","08:10",0.0,27.8,76.0,1008.3,120.6,1.3,3.1,108.9,0.10,23.2,25.7,"08:00:16",1
"19/09/07","08:20",0.0,28.0,75.7,1008.1,120.9,1.5,3.5,112.4,0.11,23.3,25.5,"08:18:32",1
"19/09/07","08:30",0.0,27.7,76.1,1007.8,122.2,1.7,4.0,112.2,0.09,23.1,25.5,"08:25:04",1
"19/09/07","08:40",0.0,27.9,76.1,1008.1,112.2,1.7,3.6,124.4,0.08,23.3,25.7,"08:30:08",1
"19/09/07","08:50",0.0,28.1,76.6,1007.8,102.6,1.6,3.2,113.3,0.13,23.6,25.8,"08:46:08",1
"19/09/07","09:00",0.0,28.8,74.0,1007.1,106.9,1.8,4.1,100.8,0.26,23.7,25.9,"08:55:36",1
"19/09/07","09:10",0.0,29.1,73.9,1007.6,120.0,1.7,4.9,115.1,0.28,24.0,26.1,"09:08:16",1
"19/09/07","09:20",0.0,29.4,73.7,1007.8,119.4,2.1,4.3,115.1,0.33,24.3,26.2,"09:15:36",1
"19/09/07","09:30",0.0,29.4,73.8,1008.3,117.1,2.0,4.8,105.7,0.33,24.3,26.3,"09:27:28",1
"19/09/07","09:40",0.0,29.8,72.2,1008.3,101.3,2.1,3.9,47.0,0.39,24.3,26.7,"09:32:56",1
"19/09/07","09:50",0.0,29.8,71.5,1008.3,104.3,2.1,4.7,113.0,0.35,24.1,26.8,"09:40:56",1
"19/09/07","10:00",0.0,30.4,69.8,1008.3,111.8,2.0,3.6,26.5,0.42,24.3,26.9,"09:59:44",1
"19/09/07","10:10",0.0,30.4,71.4,1008.6,106.7,1.7,3.7,116.0,0.31,24.7,27.2,"10:08:24",1
"19/09/07","10:20",0.0,29.6,72.6,1008.1,110.5,2.1,5.1,107.9,0.24,24.2,27.4,"10:12:56",1
"19/09/07","10:30",0.0,29.2,73.1,1007.8,109.0,2.2,4.4,114.4,0.12,23.9,27.4,"10:26:24",1
"19/09/07","10:40",0.0,29.0,74.1,1007.4,100.0,2.0,4.0,115.0,0.08,24.0,27.6,"10:33:04",1
"19/09/07","10:50",0.0,29.5,73.2,1007.4,98.3,1.8,4.0,112.2,0.19,24.2,27.5,"10:43:28",1
"19/09/07","11:00",0.0,30.3,70.9,1007.4,110.3,2.1,4.3,119.6,0.38,24.5,27.7,"10:52:48",1
"19/09/07","11:10",0.0,31.0,69.0,1008.1,102.5,2.0,5.2,100.8,0.51,24.7,27.7,"11:07:52",1
"19/09/07","11:20",0.0,30.7,69.0,1007.8,124.7,2.1,4.2,97.1,0.52,24.4,27.8,"11:14:16",1
"19/09/07","11:30",0.0,30.3,67.7,1008.1,121.7,2.1,3.9,115.6,0.33,23.7,28.1,"11:27:52",1
"19/09/07","11:40",0.0,30.4,66.4,1007.6,119.9,2.1,4.4,152.3,0.18,23.5,28.2,"11:31:44",1
"19/09/07","11:50",0.0,30.6,68.1,1007.6,125.4,2.0,5.4,143.5,0.18,24.1,28.2,"11:41:20",1
"19/09/07","12:00",0.0,30.7,67.5,1007.1,110.3,2.5,4.3,125.2,0.20,24.0,28.2,"11:58:40",1
"19/09/07","12:10",0.0,31.3,66.8,1007.1,99.1,2.2,5.1,104.7,0.48,24.4,28.4,"12:03:20",1
"19/09/07","12:20",0.0,31.1,66.1,1007.6,110.3,2.5,4.7,111.5,0.37,24.1,28.5,"12:11:20",1
"19/09/07","12:30",0.0,31.6,65.6,1007.8,140.5,2.2,4.8,202.1,0.51,24.4,28.5,"12:27:04",1
"19/09/07","12:40",0.0,31.1,65.2,1007.8,121.6,2.2,4.4,163.7,0.31,23.8,28.8,"12:34:40",1
"19/09/07","12:50",0.0,31.1,66.2,1007.6,111.9,2.7,5.4,122.4,0.34,24.1,28.8,"12:46:48",1
"19/09/07","13:00",0.0,32.0,66.1,1007.4,110.3,2.5,5.5,94.1,0.55,24.9,28.7,"12:52:32",1
"19/09/07","13:10",0.0,31.7,64.9,1007.4,105.0,2.5,5.2,94.9,0.56,24.3,29.0,"13:04:32",1
"19/09/07","13:20",0.0,32.1,61.6,1007.1,102.3,2.5,5.1,115.5,0.51,23.8,29.1,"13:12:40",1
"19/09/07","13:30",0.0,32.2,60.0,1007.1,116.1,2.6,6.4,116.8,0.50,23.5,29.3,"13:25:04",1
"19/09/07","13:40",0.0,32.6,60.1,1006.9,125.8,2.0,4.5,117.7,0.45,23.9,29.4,"13:33:28",1
"19/09/07","13:50",0.0,32.7,60.1,1006.9,105.2,2.5,5.4,109.5,0.48,24.0,29.4,"13:43:36",1
"19/09/07","14:00",0.0,32.1,60.7,1006.9,98.0,2.3,4.7,107.3,0.39,23.6,29.5,"13:51:44",1
"19/09/07","14:10",0.0,32.4,60.3,1006.7,103.6,2.6,5.0,113.1,0.41,23.8,29.8,"14:06:00",1
"19/09/07","14:20",0.0,33.0,57.6,1006.7,106.1,2.0,5.5,95.1,0.45,23.6,29.6,"14:19:44",1
"19/09/07","14:30",0.0,33.0,57.6,1006.7,101.4,1.8,4.7,98.1,0.43,23.6,29.8,"14:23:28",1
"19/09/07","14:40",0.0,32.2,58.5,1006.7,107.6,2.2,4.1,118.0,0.31,23.1,29.8,"14:35:52",1
"19/09/07","14:50",0.0,31.7,59.8,1006.2,107.2,2.1,5.9,101.7,0.15,23.0,29.9,"14:48:40",1
"19/09/07","15:00",0.0,32.3,59.0,1005.7,101.8,2.2,5.0,114.5,0.24,23.3,29.9,"14:59:12",1
"19/09/07","15:10",0.0,31.6,60.7,1005.5,117.8,2.3,5.2,140.5,0.08,23.1,29.7,"15:00:24",1
"19/09/07","15:20",0.0,32.2,59.3,1005.2,107.1,2.3,5.4,91.6,0.23,23.3,29.7,"15:18:08",1
"19/09/07","15:30",0.0,31.7,61.0,1005.2,104.4,2.3,5.8,113.4,0.09,23.3,29.7,"15:23:44",1
"19/09/07","15:40",0.0,31.7,61.3,1004.5,110.2,2.5,6.6,114.6,0.12,23.4,29.4,"15:31:36",1
"19/09/07","15:50",0.0,32.1,59.8,1004.5,102.0,2.3,4.7,94.2,0.13,23.3,29.4,"15:42:08",1
"19/09/07","16:00",0.0,31.8,60.4,1004.8,108.5,2.2,4.4,104.9,0.09,23.2,29.2,"15:58:40",1
"19/09/07","16:10",0.0,31.7,61.3,1004.3,116.3,2.5,4.9,119.7,0.08,23.4,29.3,"16:01:28",1
"19/09/07","16:20",0.0,31.6,61.3,1004.1,118.5,2.0,4.5,118.1,0.07,23.3,29.2,"16:15:36",1
"19/09/07","16:30",0.0,31.6,61.3,1004.5,105.7,1.6,4.1,118.8,0.02,23.3,28.9,"16:22:40",1
"19/09/07","16:40",0.0,31.4,61.5,1004.3,104.5,2.0,4.0,111.1,0.03,23.1,28.9,"16:39:36",1
"19/09/07","16:50",0.0,31.4,61.3,1003.8,94.5,2.2,4.2,68.8,0.02,23.1,28.9,"16:47:28",1
"19/09/07","17:00",0.0,31.2,62.1,1004.1,105.2,2.3,5.0,101.6,0.03,23.1,28.8,"16:54:56",1
"19/09/07","17:10",0.0,31.3,61.7,1004.1,115.6,1.7,3.9,103.0,0.06,23.1,28.7,"17:04:16",1
"19/09/07","17:20",0.0,31.3,61.6,1004.3,113.1,1.8,4.0,117.8,0.05,23.1,28.4,"17:11:04",1
"19/09/07","17:30",0.0,31.3,61.8,1004.5,125.6,1.8,3.4,124.2,0.05,23.1,28.5,"17:22:40",1
"19/09/07","17:40",0.0,31.3,61.7,1004.1,109.7,1.8,4.4,117.8,0.04,23.1,28.5,"17:39:52",1
"19/09/07","17:50",0.0,31.0,61.5,1004.1,101.7,2.1,4.5,113.4,0.02,22.8,28.3,"17:48:00",1
"19/09/07","18:00",0.0,31.0,61.4,1004.3,103.1,1.6,3.2,93.9,0.02,22.7,28.2,"17:50:02",1
"19/09/07","18:10",0.0,31.0,61.8,1004.3,116.7,1.5,3.4,102.3,0.03,22.9,28.3,"18:08:32",1
"19/09/07","18:20",0.0,30.8,62.2,1004.3,105.4,2.0,3.5,132.7,0.01,22.8,28.4,"18:12:32",1
"19/09/07","18:30",0.0,30.5,63.5,1004.1,107.4,1.1,3.1,97.6,0.00,22.8,28.3,"18:28:48",1
"19/09/07","18:40",0.0,30.1,65.0,1004.1,109.9,1.1,2.2,96.1,0.00,22.8,28.1,"18:37:12",1
"19/09/07","18:50",0.0,29.9,65.7,1004.1,103.3,1.1,3.6,45.1,0.00,22.8,28.2,"18:44:32",1
"19/09/07","19:00",0.0,29.5,66.9,1004.1,75.8,0.6,2.0,85.1,0.00,22.7,27.9,"18:57:20",1
"19/09/07","19:10",0.0,29.4,67.2,1004.1,98.9,1.1,3.4,109.2,0.00,22.7,27.9,"19:09:28",1
"19/09/07","19:20",0.0,29.4,66.2,1004.1,106.4,1.3,2.9,118.4,0.00,22.5,27.6,"19:16:00",1
"19/09/07","19:30",0.0,29.1,67.5,1004.8,109.1,1.0,2.2,113.0,0.00,22.5,27.8,"19:24:48",1
"19/09/07","19:40",0.0,29.0,68.4,1004.8,79.4,0.8,1.7,62.4,0.00,22.6,27.7,"19:31:28",1
"19/09/07","19:50",0.0,29.1,68.8,1004.8,101.5,1.3,4.4,107.6,0.00,22.8,27.5,"19:42:08",1
"19/09/07","20:00",0.0,28.9,70.1,1005.2,115.0,1.2,2.6,108.5,0.00,22.9,27.2,"19:54:08",1
"19/09/07","20:10",0.0,28.8,71.2,1005.2,147.9,0.3,1.4,125.6,0.00,23.1,27.3,"20:08:56",1
"19/09/07","20:20",0.0,28.6,73.0,1005.5,63.4,0.3,1.2,7.1,0.00,23.3,27.4,"20:17:04",1
"19/09/07","20:30",0.0,28.8,73.0,1005.2,55.2,1.1,4.5,66.0,0.00,23.5,27.2,"20:28:40",1
"19/09/07","20:40",0.0,28.9,72.8,1005.5,123.9,1.1,4.1,112.6,0.00,23.6,27.2,"20:31:12",1
"19/09/07","20:50",0.2,28.3,75.8,1005.2,70.4,0.8,2.0,118.0,0.00,23.7,27.3,"20:44:00",1
"19/09/07","21:00",0.0,27.6,78.8,1005.7,7.7,0.8,1.9,3.0,0.00,23.6,27.4,"20:53:44",1
"19/09/07","21:10",0.2,27.0,82.2,1005.7,12.5,0.7,1.6,357.3,0.00,23.7,27.0,"21:09:20",1
"19/09/07","21:20",0.2,26.5,84.8,1005.7,357.1,0.7,1.7,351.8,0.00,23.8,27.1,"21:16:00",1
"19/09/07","21:30",0.0,26.3,86.4,1005.7,352.1,0.7,1.9,33.2,0.00,23.9,27.0,"21:28:40",1
"19/09/07","21:40",0.0,26.3,86.8,1005.7,25.9,0.6,1.6,326.6,0.00,24.0,27.0,"21:30:08",1
"19/09/07","21:50",0.0,26.5,86.9,1006.0,60.2,0.7,1.6,44.1,0.00,24.2,27.1,"21:44:56",1
"19/09/07","22:00",0.0,26.5,86.7,1005.7,27.3,0.7,2.0,343.1,0.00,24.1,27.0,"21:56:40",1
"19/09/07","22:10",0.0,26.6,86.7,1006.0,8.7,0.6,1.3,32.3,0.00,24.2,27.0,"22:04:32",1
"19/09/07","22:20",0.0,26.8,86.1,1006.0,67.5,1.2,2.8,8.5,0.00,24.3,26.9,"22:12:08",1
"19/09/07","22:30",0.0,27.0,85.0,1005.7,99.4,1.6,3.4,110.2,0.00,24.3,26.8,"22:20:48",1
"19/09/07","22:40",0.0,27.1,84.4,1005.7,103.0,1.2,3.4,84.7,0.00,24.3,26.9,"22:31:44",1
"19/09/07","22:50",0.0,27.2,84.2,1005.7,86.4,1.2,3.3,116.0,0.00,24.3,26.9,"22:47:20",1
"19/09/07","23:00",0.0,27.2,83.8,1005.7,68.2,1.0,2.9,110.6,0.00,24.3,26.8,"22:58:08",1
"19/09/07","23:10",0.0,27.1,83.7,1005.7,92.6,1.0,2.7,109.8,0.00,24.1,26.7,"23:07:44",1
"19/09/07","23:20",0.0,27.1,83.6,1005.5,108.4,1.2,2.8,73.0,0.00,24.1,26.9,"23:11:20",1
"19/09/07","23:30",0.0,27.0,84.0,1005.7,67.4,0.6,1.9,123.2,0.00,24.1,26.7,"23:22:24",1
"19/09/07","23:40",0.0,27.0,84.1,1005.7,136.1,0.8,3.3,106.8,0.00,24.1,26.7,"23:37:36",1
"19/09/07","23:50",0.0,27.0,84.1,1005.7,112.5,0.8,2.5,143.0,0.00,24.1,26.7,"23:49:36",1
"19/09/07","24:00",0.0,27.1,83.8,1006.0,100.0,1.2,2.9,111.8,0.00,24.2,26.8,"23:50:24",1
